Retour au catalogue

E3TESTER

ActifScienceSSO
NORAD 66662·PAYLOAD·🇰🇷 South Korea

Lancé Nov 26, 2025 depuis Naro Space Center

Loading…

Prochains Passages (prochaines 24 heures)

TLE

FraisSource: Space-Track

Époque: Sep 13, 2026, 18:05 UTC

1 66662U 25274N   26256.75362771  .00001935  00000-0  18423-3 0  9994
2 66662  97.7486 185.1092 0016444  84.4220 275.8875 14.94471660 43465

Suivez E3TESTER en temps réel avec AllMySat

Download on the App Store